Weather History for Doha, Qatar

Change the Weather History Date:

Monday, October 8, 2012

  Actual Average Record
Temperature  
Mean Temperature 92 °F -  
Max Temperature 101 °F 92 °F 104 °F (2004)
Min Temperature 82 °F 72 °F 77 °F (1996)
Cooling Degree Days 26    
Growing Degree Days 42 (Base 50)    
Moisture  
Dew Point 67 °F    
Average Humidity 50    
Maximum Humidity 79    
Minimum Humidity 10    
Precipitation  
Precipitation 0.00 in 0.00 in - ()
Sea Level Pressure  
Sea Level Pressure 29.88 in    
Wind  
Wind Speed 3 mph ()    
Max Wind Speed 12 mph    
Max Gust Speed -    
Visibility 5.2 miles    
Events      
Averages and records for this station are not official NWS values.
T = Trace of Precipitation, MM = Missing Value Source: Averaged Metar Reports

Daily Weather History Graph

Daily Weather History Graph

Search for Another Location

Airport:

Trip Planner

Search our weather history database for the weather conditions in past years. The results will help you decide how hot, cold, wet, or windy it might be!

Date:

Astronomy

Oct. 08, 2012 Rise Set
Actual Time 5:28 AM AST 5:13 PM AST
Civil Twilight 5:05 AM AST 5:36 PM AST
Nautical Twilight 4:39 AM AST 6:02 PM AST
Astronomical Twilight 4:12 AM AST 6:29 PM AST
Moon 11:20 PM AST (10/8) 12:08 PM AST (10/8)
Length of Visible Light 12h 30m
Length of Day
11h 44m
Waning Gibbous, 49% of the Moon is Illuminated
Oct 8
Waning Gibbous
Oct 15
New
Oct 22
First Quarter
Oct 29
Full
Nov 7
Last Quarter

Hourly Weather History & Observations

Time (AST) Temp. Heat Index Dew Point Humidity Pressure Visibility Wind Dir Wind Speed Gust Speed Precip Events Conditions
12:00 AM 87.8 °F 97.6 °F 75.2 °F 66% 29.89 in - Variable 2.3 mph - N/A   Clear
12:30 AM 86.0 °F 95.1 °F 75.2 °F 70% 29.89 in 5.6 mi Variable 2.3 mph - N/A   Unknown
1:00 AM 86.0 °F 95.1 °F 75.2 °F 70% 29.86 in 5.0 mi Variable 2.3 mph - N/A   Unknown
1:30 AM 86.0 °F 95.1 °F 75.2 °F 70% 29.86 in 5.0 mi Variable 2.3 mph - N/A   Unknown
2:00 AM 86.0 °F 95.1 °F 75.2 °F 70% 29.86 in 5.0 mi Variable 2.3 mph - N/A   Unknown
2:30 AM 86.0 °F 95.1 °F 75.2 °F 70% 29.86 in 5.0 mi Variable 2.3 mph - N/A   Unknown
3:00 AM 84 °F - 75 °F 67% 29.87 in 5 mi 2.3 mph - -   Haze
3:00 AM 84.2 °F 92.3 °F 75.2 °F 74% 29.86 in 5.0 mi Variable 2.3 mph - N/A   Unknown
3:30 AM 84.2 °F 92.3 °F 75.2 °F 74% 29.86 in 5.0 mi Calm Calm - N/A   Unknown
4:00 AM 82.4 °F 89.5 °F 75.2 °F 79% 29.86 in 5.0 mi Calm Calm - N/A   Unknown
4:30 AM 84.2 °F 92.3 °F 75.2 °F 74% 29.89 in 5.0 mi Calm Calm - N/A   Unknown
5:00 AM 82.4 °F 89.5 °F 75.2 °F 79% 29.89 in 5.0 mi Calm Calm - N/A   Unknown
5:30 AM 82.4 °F 89.5 °F 75.2 °F 79% 29.89 in 4.3 mi Calm Calm - N/A   Unknown
6:00 AM 82.4 °F 89.5 °F 75.2 °F 79% 29.89 in 4.3 mi Variable 1.2 mph - N/A   Unknown
6:30 AM 84.2 °F 92.3 °F 75.2 °F 74% 29.92 in 4.3 mi Variable 1.2 mph - N/A   Unknown
7:00 AM 87.8 °F 97.6 °F 75.2 °F 66% 29.92 in 4.3 mi Variable 2.3 mph - N/A   Unknown
7:30 AM 87.8 °F 97.6 °F 75.2 °F 66% 29.92 in 4.3 mi Variable 2.3 mph - N/A   Unknown
8:00 AM 89.6 °F 99.8 °F 75.2 °F 62% 29.92 in 4.3 mi Variable 2.3 mph - N/A   Unknown
8:30 AM 91.4 °F 100.1 °F 73.4 °F 55% 29.92 in 5.0 mi Variable 2.3 mph - N/A   Unknown
9:00 AM 95 °F - 67 °F 30% 29.94 in 5 mi 1.2 mph - -   Smoke
9:30 AM 96.8 °F 97.1 °F 60.8 °F 30% 29.92 in 5.6 mi ESE 3.5 mph - N/A   Unknown
10:00 AM 98.6 °F 100.0 °F 62.6 °F 30% 29.92 in 5.6 mi Variable 1.2 mph - N/A   Unknown
10:30 AM 100.4 °F - 50.0 °F 18% 29.89 in - NNE 4.6 mph - N/A   Clear
11:00 AM 100.4 °F 98.8 °F 55.4 °F 22% 29.89 in - East 5.8 mph - N/A   Clear
11:30 AM 100.4 °F 98.4 °F 53.6 °F 21% 29.89 in - NE 5.8 mph - N/A   Clear
12:00 PM 100.4 °F 98.8 °F 55.4 °F 22% 29.86 in - ENE 6.9 mph - N/A   Clear
12:30 PM 100.4 °F - 46.4 °F 16% 29.86 in - NE 6.9 mph - N/A   Clear
1:00 PM 100.4 °F - 41.0 °F 13% 29.86 in - North 8.1 mph - N/A   Clear
1:30 PM 100.4 °F - 41.0 °F 13% 29.86 in - North 9.2 mph - N/A   Clear
2:00 PM 100.4 °F - 39.2 °F 12% 29.83 in - NNE 10.4 mph - N/A   Clear
2:30 PM 100.4 °F - 39.2 °F 12% 29.83 in - NE 9.2 mph - N/A   Clear
3:00 PM 99 °F - 47 °F 10% 29.85 in 10 mi ENE 8.1 mph - -  
3:00 PM 98.6 °F - 46.4 °F 17% 29.83 in - ENE 8.1 mph - N/A   Clear
3:30 PM 98.6 °F - 50.0 °F 19% 29.83 in - ENE 9.2 mph - N/A   Clear
4:00 PM 96.8 °F 96.2 °F 59.0 °F 28% 29.83 in - ENE 9.2 mph - N/A   Clear
4:30 PM 95.0 °F 97.0 °F 64.4 °F 36% 29.83 in - NE 11.5 mph - N/A   Clear
5:00 PM 93.2 °F 98.8 °F 69.8 °F 46% 29.83 in - NE 9.2 mph - N/A   Clear
5:30 PM 91.4 °F 98.4 °F 71.6 °F 52% 29.86 in - NE 6.9 mph - N/A   Clear
6:00 PM 91.4 °F 98.4 °F 71.6 °F 52% 29.86 in - NE 6.9 mph - N/A   Clear
6:30 PM 91.4 °F 98.4 °F 71.6 °F 52% 29.86 in - NE 8.1 mph - N/A   Clear
7:00 PM 89.6 °F 98.2 °F 73.4 °F 59% 29.86 in - NE 6.9 mph - N/A   Clear
7:30 PM 89.6 °F 98.2 °F 73.4 °F 59% 29.89 in - NE 5.8 mph - N/A   Clear
8:00 PM 89.6 °F 98.2 °F 73.4 °F 59% 29.89 in - NE 5.8 mph - N/A   Clear
8:30 PM 89.6 °F 98.2 °F 73.4 °F 59% 29.89 in - NNE 5.8 mph - N/A   Clear
9:00 PM 89 °F - 74 °F 52% 29.89 in 6 mi NNE 4.6 mph - -  
9:00 PM 89.6 °F 98.2 °F 73.4 °F 59% 29.89 in - NNE 4.6 mph - N/A   Clear
9:30 PM 87.8 °F 95.6 °F 73.4 °F 62% 29.89 in - NE 4.6 mph - N/A   Clear
10:00 PM 87.8 °F 95.6 °F 73.4 °F 62% 29.89 in - NE 4.6 mph - N/A   Clear
10:30 PM 87.8 °F 97.6 °F 75.2 °F 66% 29.86 in - NE 3.5 mph - N/A   Clear
11:00 PM 87.8 °F 97.6 °F 75.2 °F 66% 29.86 in - ENE 3.5 mph - N/A   Clear
11:30 PM 86.0 °F 95.1 °F 75.2 °F 70% 29.86 in - ENE 3.5 mph - N/A   Clear